| time (UTC) | temp C | wind direction | speed KPH | gust KPH | rain 1hr cm | rain 24hr cm | rain mn cm | humidity % | barometer mb |
| 20260507093100 | 4 | 238 | 1.6 | 8.0 | 0.00 | 0.13 | 0.00 | 76 | 1014.6 |
| 20260507091559 | 5 | 250 | 3.2 | 8.0 | 0.00 | 0.13 | 0.00 | 75 | 1014.6 |
| 20260507090059 | 5 | 0 | 0.0 | 4.8 | 0.00 | 0.13 | 0.00 | 75 | 1014.6 |
| 20260507084603 | 5 | 0 | 1.6 | 9.7 | 0.00 | 0.15 | 0.00 | 76 | 1014.6 |
| 20260507083100 | 5 | 270 | 1.6 | 9.7 | 0.00 | 0.15 | 0.00 | 76 | 1014.5 |
| 20260507081559 | 5 | 0 | 1.6 | 4.8 | 0.00 | 0.15 | 0.00 | 77 | 1014.5 |
| 20260507074558 | 5 | 271 | 1.6 | 4.8 | 0.00 | 0.18 | 0.00 | 76 | 1014.6 |
| 20260507073109 | 5 | 0 | 1.6 | 6.4 | 0.00 | 0.18 | 0.00 | 75 | 1014.6 |
| 20260507071600 | 6 | 272 | 0.0 | 4.8 | 0.00 | 0.18 | 0.00 | 73 | 1014.6 |
| 20260507070109 | 6 | 272 | 1.6 | 6.4 | 0.00 | 0.18 | 0.00 | 71 | 1014.7 |
| 20260507064604 | 6 | 271 | 1.6 | 11.3 | 0.00 | 0.20 | 0.00 | 71 | 1014.7 |
| 20260507063101 | 6 | 257 | 1.6 | 9.7 | 0.00 | 0.20 | 0.00 | 72 | 1014.9 |
| 20260507061600 | 6 | 258 | 0.0 | 9.7 | 0.00 | 0.20 | 0.00 | 71 | 1014.8 |
| 20260507060100 | 6 | 262 | 0.0 | 6.4 | 0.00 | 0.20 | 0.00 | 71 | 1014.7 |
| 20260507054558 | 7 | 0 | 1.6 | 9.7 | 0.00 | 0.23 | 0.00 | 71 | 1014.6 |
| 20260507053059 | 7 | 255 | 0.0 | 6.4 | 0.00 | 0.23 | 0.00 | 70 | 1014.6 |
| 20260507051607 | 7 | 0 | 1.6 | 6.4 | 0.00 | 0.23 | 0.00 | 70 | 1014.7 |
| 20260507050109 | 7 | 252 | 1.6 | 6.4 | 0.00 | 0.23 | 0.00 | 69 | 1014.5 |
| 20260507044600 | 7 | 241 | 3.2 | 11.3 | 0.00 | 0.28 | 0.00 | 70 | 1014.6 |
| 20260507043057 | 7 | 227 | 3.2 | 8.0 | 0.00 | 0.28 | 0.00 | 71 | 1014.5 |
| 20260507041601 | 8 | 0 | 1.6 | 6.4 | 0.00 | 0.28 | 0.00 | 70 | 1014.5 |
| 20260507040106 | 8 | 225 | 1.6 | 4.8 | 0.00 | 0.28 | 0.00 | 69 | 1014.5 |
| 20260507034559 | 8 | 0 | 1.6 | 8.0 | 0.00 | 0.33 | 0.28 | 69 | 1014.5 |
| 20260507033100 | 8 | 225 | 1.6 | 4.8 | 0.00 | 0.33 | 0.28 | 68 | 1014.4 |
| 20260507031600 | 9 | 225 | 0.0 | 4.8 | 0.00 | 0.33 | 0.28 | 67 | 1014.5 |
| 20260507030059 | 9 | 225 | 1.6 | 4.8 | 0.00 | 0.33 | 0.28 | 67 | 1014.4 |
| 20260507024558 | 9 | 0 | 0.0 | 3.2 | 0.00 | 0.41 | 0.28 | 67 | 1014.3 |
| 20260507023057 | 10 | 225 | 0.0 | 4.8 | 0.00 | 0.41 | 0.28 | 66 | 1014.4 |
| 20260507021611 | 10 | 0 | 0.0 | 1.6 | 0.00 | 0.41 | 0.28 | 65 | 1014.3 |
| 20260507020059 | 10 | 0 | 0.0 | 3.2 | 0.00 | 0.41 | 0.28 | 64 | 1014.3 |
| 20260507014600 | 10 | 0 | 0.0 | 1.6 | 0.00 | 0.51 | 0.28 | 64 | 1014.3 |
| 20260507013057 | 10 | 0 | 0.0 | 3.2 | 0.00 | 0.51 | 0.28 | 63 | 1014.0 |
| 20260507011600 | 11 | 0 | 0.0 | 3.2 | 0.00 | 0.51 | 0.28 | 59 | 1013.9 |
| 20260507004600 | 11 | 0 | 0.0 | 4.8 | 0.00 | 0.61 | 0.28 | 58 | 1013.5 |
| 20260507003100 | 11 | 225 | 0.0 | 4.8 | 0.00 | 0.61 | 0.28 | 56 | 1013.3 |
| 20260507001606 | 12 | 238 | 1.6 | 6.4 | 0.00 | 0.61 | 0.28 | 57 | 1013.3 |
| 20260507000059 | 12 | 211 | 3.2 | 9.7 | 0.00 | 0.61 | 0.28 | 55 | 1013.3 |
| 20260506234624 | 12 | 281 | 3.2 | 9.7 | 0.00 | 0.74 | 0.28 | 55 | 1013.3 |
| 20260506233100 | 12 | 225 | 3.2 | 14.5 | 0.00 | 0.74 | 0.28 | 53 | 1013.3 |
| 20260506231557 | 12 | 263 | 0.0 | 6.4 | 0.00 | 0.74 | 0.28 | 52 | 1013.4 |
| 20260506230100 | 12 | 221 | 4.8 | 11.3 | 0.00 | 0.74 | 0.28 | 50 | 1013.4 |
| 20260506224600 | 13 | 248 | 4.8 | 11.3 | 0.00 | 0.84 | 0.28 | 48 | 1013.4 |
| 20260506223101 | 13 | 261 | 8.0 | 14.5 | 0.00 | 0.84 | 0.28 | 50 | 1013.6 |
| 20260506221600 | 12 | 246 | 4.8 | 19.3 | 0.00 | 0.84 | 0.28 | 49 | 1013.4 |
| 20260506214601 | 12 | 280 | 3.2 | 11.3 | 0.00 | 0.89 | 0.28 | 49 | 1013.3 |
| 20260506213059 | 12 | 269 | 4.8 | 14.5 | 0.00 | 0.89 | 0.28 | 48 | 1013.3 |
| 20260506211601 | 13 | 242 | 8.0 | 19.3 | 0.00 | 0.89 | 0.28 | 49 | 1013.4 |
| 20260506210059 | 12 | 198 | 8.0 | 20.9 | 0.00 | 0.89 | 0.28 | 50 | 1013.4 |
| 20260506204603 | 12 | 220 | 9.7 | 19.3 | 0.00 | 0.94 | 0.28 | 50 | 1013.5 |
| 20260506203058 | 12 | 208 | 8.0 | 19.3 | 0.00 | 0.94 | 0.28 | 46 | 1013.4 |
| 20260506201601 | 12 | 190 | 4.8 | 16.1 | 0.00 | 0.94 | 0.28 | 50 | 1013.4 |
| 20260506200111 | 12 | 281 | 6.4 | 14.5 | 0.00 | 0.94 | 0.28 | 50 | 1013.6 |
| 20260506194622 | 12 | 254 | 4.8 | 12.9 | 0.00 | 0.97 | 0.28 | 51 | 1013.7 |
| 20260506193100 | 12 | 258 | 6.4 | 17.7 | 0.00 | 0.97 | 0.28 | 49 | 1013.7 |
| 20260506191600 | 12 | 290 | 8.0 | 17.7 | 0.00 | 0.97 | 0.28 | 49 | 1013.7 |
| 20260506190104 | 12 | 290 | 4.8 | 12.9 | 0.00 | 0.97 | 0.28 | 49 | 1013.6 |
| 20260506184611 | 12 | 261 | 3.2 | 12.9 | 0.00 | 0.99 | 0.28 | 49 | 1013.7 |
| 20260506183107 | 12 | 270 | 3.2 | 11.3 | 0.00 | 0.99 | 0.28 | 50 | 1013.6 |
| 20260506181609 | 12 | 255 | 4.8 | 11.3 | 0.00 | 0.99 | 0.28 | 49 | 1013.7 |
| 20260506180106 | 12 | 228 | 3.2 | 12.9 | 0.00 | 0.99 | 0.28 | 47 | 1013.7 |
| 20260506174604 | 12 | 207 | 6.4 | 14.5 | 0.00 | 0.99 | 0.28 | 47 | 1013.6 |
| 20260506173115 | 12 | 292 | 4.8 | 12.9 | 0.00 | 0.99 | 0.28 | 48 | 1013.6 |
| 20260506171602 | 12 | 290 | 4.8 | 12.9 | 0.00 | 0.99 | 0.28 | 49 | 1013.4 |
| 20260506170100 | 12 | 0 | 4.8 | 11.3 | 0.00 | 0.99 | 0.28 | 48 | 1013.6 |
| 20260506164558 | 12 | 277 | 4.8 | 14.5 | 0.00 | 0.99 | 0.28 | 49 | 1013.6 |
| 20260506163107 | 12 | 257 | 4.8 | 14.5 | 0.00 | 0.99 | 0.28 | 47 | 1013.6 |
| 20260506161606 | 13 | 300 | 4.8 | 16.1 | 0.03 | 0.99 | 0.28 | 50 | 1013.7 |
| 20260506160100 | 13 | 208 | 6.4 | 12.9 | 0.03 | 0.99 | 0.28 | 50 | 1013.7 |
| 20260506154558 | 12 | 11 | 6.4 | 16.1 | 0.03 | 0.99 | 0.28 | 52 | 1013.7 |
| 20260506153100 | 12 | 290 | 3.2 | 14.5 | 0.03 | 0.99 | 0.28 | 55 | 1013.8 |
| 20260506151610 | 12 | 322 | 4.8 | 12.9 | 0.00 | 0.97 | 0.25 | 53 | 1013.6 |
| 20260506150106 | 11 | 338 | 4.8 | 14.5 | 0.00 | 0.97 | 0.25 | 54 | 1013.3 |
| 20260506144617 | 11 | 5 | 4.8 | 9.7 | 0.00 | 0.97 | 0.25 | 58 | 1013.5 |
| 20260506143104 | 11 | 0 | 1.6 | 8.0 | 0.03 | 0.97 | 0.25 | 62 | 1013.3 |
| 20260506141559 | 10 | 0 | 0.0 | 16.1 | 0.03 | 0.97 | 0.25 | 62 | 1013.1 |
| 20260506140108 | 10 | 313 | 4.8 | 14.5 | 0.03 | 0.97 | 0.25 | 63 | 1012.9 |
| 20260506134600 | 10 | 290 | 6.4 | 12.9 | 0.03 | 0.97 | 0.25 | 64 | 1012.9 |
| 20260506133100 | 10 | 335 | 6.4 | 17.7 | 0.00 | 0.94 | 0.23 | 66 | 1012.9 |
| 20260506131601 | 9 | 323 | 6.4 | 16.1 | 0.00 | 0.94 | 0.23 | 70 | 1012.8 |
| 20260506130133 | 8 | 5 | 4.8 | 12.9 | 0.00 | 0.94 | 0.23 | 78 | 1012.4 |
| 20260506124559 | 7 | 352 | 3.2 | 12.9 | 0.03 | 0.97 | 0.23 | 89 | 1012.4 |
| 20260506123058 | 7 | 336 | 3.2 | 9.7 | 0.03 | 0.97 | 0.23 | 96 | 1012.2 |
| 20260506121604 | 7 | 278 | 3.2 | 9.7 | 0.03 | 0.97 | 0.23 | 97 | 1012.0 |
| 20260506114559 | 6 | 0 | 0.0 | 4.8 | 0.00 | 0.94 | 0.20 | 97 | 1011.5 |
| 20260506113107 | 6 | 0 | 0.0 | 3.2 | 0.03 | 0.94 | 0.20 | 97 | 1011.5 |
| 20260506111600 | 6 | 0 | 0.0 | 1.6 | 0.03 | 0.94 | 0.20 | 97 | 1011.0 |
| 20260506110105 | 6 | 0 | 0.0 | 1.6 | 0.03 | 0.94 | 0.20 | 97 | 1010.9 |
| 20260506104616 | 6 | 0 | 0.0 | 1.6 | 0.03 | 0.97 | 0.20 | 97 | 1010.7 |
| 20260506103100 | 6 | 0 | 0.0 | 4.8 | 0.00 | 0.94 | 0.18 | 97 | 1010.5 |
| 20260506101606 | 6 | 0 | 0.0 | 3.2 | 0.00 | 0.94 | 0.18 | 97 | 1010.4 |
| 20260506100059 | 6 | 0 | 0.0 | 3.2 | 0.03 | 0.94 | 0.18 | 97 | 1010.1 |
| 20260506094605 | 6 | 163 | 0.0 | 3.2 | 0.03 | 1.02 | 0.18 | 97 | 1010.1 |